Waskish, MN

2:16 PM CST on December 08, 2016 (GMT -0600)
Waskish Municipal

Weather History for KVWU - August, 2013

Change the Weather History Date:

Friday, August 2, 2013

  Actual Average (KBDE) Record (KBDE)
Temperature  
Mean Temperature 60 °F -  
Max Temperature 73 °F 79 °F 96 °F (1989)
Min Temperature 48 °F 54 °F 44 °F (1948)
Degree Days  
Heating Degree Days 4    
Growing Degree Days 10 (Base 50)    
Moisture  
Dew Point 51 °F    
Average Humidity 72    
Maximum Humidity 100    
Minimum Humidity 46    
Precipitation  
Precipitation 0.00 in - - ()
Sea Level Pressure  
Sea Level Pressure 29.97 in    
Wind  
Wind Speed 5 mph (NNW)    
Max Wind Speed 12 mph    
Max Gust Speed 16 mph    
Visibility 10 miles    
Events      
Averages and records for this station are not official NWS values.
T = Trace of Precipitation, MM = Missing Value Source: NWS Daily Summary

Daily Weather History Graph

Daily Weather History Graph

Search for Another Location

Airport or City:

Trip Planner

Search our weather history database for the weather conditions in past years. The results will help you decide how hot, cold, wet, or windy it might be!

Date:

Astronomy

Aug. 02, 2013 Rise Set
Actual Time 5:55 AM CDT 8:52 PM CDT
Civil Twilight 5:19 AM CDT 9:28 PM CDT
Nautical Twilight 4:32 AM CDT 10:15 PM CDT
Astronomical Twilight 3:34 AM CDT 11:11 PM CDT
Moon 2:13 AM CDT (8/2) 5:53 PM CDT (8/2)
Length of Visible Light 16h 09m
Length of Day
14h 56m
Waning Crescent, 15% of the Moon is Illuminated
Aug 2
Waning Crescent
Aug 6
New
Aug 14
First Quarter
Aug 20
Full
Aug 28
Last Quarter

Hourly Weather History & Observations

Time (CDT) Temp. Dew Point Humidity Pressure Visibility Wind Dir Wind Speed Gust Speed Precip Events Conditions
12:08 AM 53.6 °F 51.8 °F 94% 29.90 in 10.0 mi Calm Calm - N/A   Clear
12:29 AM 51.8 °F 50.0 °F 94% 29.90 in 10.0 mi Calm Calm - N/A   Clear
12:48 AM 51.8 °F 48.2 °F 88% 29.90 in 7.0 mi Calm Calm - N/A   Clear
1:08 AM 50.0 °F 48.2 °F 94% 29.89 in 10.0 mi Calm Calm - N/A   Clear
1:29 AM 50.0 °F 48.2 °F 94% 29.89 in 10.0 mi Calm Calm - N/A   Clear
1:48 AM 48.2 °F 48.2 °F 100% 29.89 in 10.0 mi Calm Calm - N/A   Clear
2:08 AM 50.0 °F 48.2 °F 94% 29.89 in 10.0 mi Calm Calm - N/A   Clear
2:29 AM 50.0 °F 48.2 °F 94% 29.88 in 10.0 mi Calm Calm - N/A   Clear
2:48 AM 48.2 °F 48.2 °F 100% 29.88 in 10.0 mi NW 3.5 mph - N/A   Clear
3:08 AM 55.4 °F 53.6 °F 94% 29.88 in 10.0 mi NW 4.6 mph - N/A   Clear
3:29 AM 55.4 °F 53.6 °F 94% 29.88 in 10.0 mi NW 6.9 mph - N/A   Clear
3:48 AM 55.4 °F 53.6 °F 94% 29.89 in 10.0 mi NW 8.1 mph - N/A   Clear
4:08 AM 55.4 °F 53.6 °F 94% 29.90 in 10.0 mi NW 6.9 mph - N/A   Clear
4:29 AM 55.4 °F 51.8 °F 88% 29.90 in 10.0 mi NW 6.9 mph - N/A   Clear
4:48 AM 55.4 °F 51.8 °F 88% 29.91 in 10.0 mi NW 6.9 mph - N/A   Clear
5:08 AM 55.4 °F 51.8 °F 88% 29.91 in 10.0 mi NW 8.1 mph - N/A   Clear
5:29 AM 55.4 °F 51.8 °F 88% 29.92 in 10.0 mi NW 9.2 mph - N/A   Clear
5:48 AM 55.4 °F 51.8 °F 88% 29.92 in 10.0 mi NW 5.8 mph - N/A   Clear
6:08 AM 55.4 °F 51.8 °F 88% 29.93 in 10.0 mi NW 8.1 mph - N/A   Clear
6:29 AM 55.4 °F 51.8 °F 88% 29.93 in 10.0 mi NW 10.4 mph - N/A   Clear
6:48 AM 57.2 °F 53.6 °F 88% 29.94 in 10.0 mi NNW 6.9 mph - N/A   Clear
7:08 AM 57.2 °F 53.6 °F 88% 29.95 in 10.0 mi NW 6.9 mph - N/A   Clear
7:29 AM 59.0 °F 53.6 °F 82% - 10.0 mi NW 6.9 mph - N/A   Clear
7:48 AM 59.0 °F 53.6 °F 82% 29.95 in 10.0 mi NW 6.9 mph - N/A   Clear
8:08 AM 59.0 °F 53.6 °F 82% 29.96 in 10.0 mi NW 5.8 mph - N/A   Clear
8:29 AM 60.8 °F 55.4 °F 82% 29.96 in 10.0 mi NW 6.9 mph - N/A   Clear
8:48 AM 62.6 °F 55.4 °F 77% 29.96 in 10.0 mi NW 8.1 mph - N/A   Clear
9:08 AM 62.6 °F 55.4 °F 77% 29.95 in 10.0 mi NNW 8.1 mph - N/A   Clear
9:29 AM 64.4 °F 53.6 °F 68% 29.95 in 10.0 mi NW 9.2 mph - N/A   Clear
9:48 AM 66.2 °F 55.4 °F 68% 29.96 in 10.0 mi NNW 6.9 mph - N/A   Clear
10:08 AM 66.2 °F 53.6 °F 64% 29.97 in 10.0 mi NW 10.4 mph 16.1 mph N/A   Clear
10:29 AM 68.0 °F 53.6 °F 60% 29.97 in 10.0 mi NW 10.4 mph - N/A   Scattered Clouds
10:48 AM 68.0 °F 51.8 °F 56% 29.98 in 10.0 mi NNW 8.1 mph - N/A   Clear
11:08 AM 69.8 °F 50.0 °F 49% 29.98 in 10.0 mi NW 10.4 mph - N/A   Clear
11:28 AM 69.8 °F 51.8 °F 53% 29.98 in 10.0 mi NW 10.4 mph - N/A   Clear
11:48 AM 69.8 °F 51.8 °F 53% 29.98 in 10.0 mi NW 11.5 mph 16.1 mph N/A   Scattered Clouds
12:09 PM 69.8 °F 51.8 °F 53% 29.98 in 10.0 mi NW 6.9 mph 16.1 mph N/A   Scattered Clouds
12:28 PM 69.8 °F 53.6 °F 56% 29.98 in 10.0 mi NNW 4.6 mph - N/A   Scattered Clouds
12:48 PM 69.8 °F 50.0 °F 49% 29.98 in 10.0 mi NW 9.2 mph - N/A   Scattered Clouds
1:08 PM 69.8 °F 50.0 °F 49% 29.98 in 10.0 mi NNW 9.2 mph - N/A   Scattered Clouds
1:29 PM 71.6 °F 50.0 °F 46% 29.98 in 10.0 mi NNW 8.1 mph 16.1 mph N/A   Clear
1:48 PM 71.6 °F 50.0 °F 46% 29.98 in 10.0 mi NNW 10.4 mph - N/A   Clear
2:09 PM 71.6 °F 51.8 °F 50% 29.97 in 10.0 mi North 10.4 mph 16.1 mph N/A   Scattered Clouds
2:28 PM 71.6 °F 51.8 °F 50% 29.98 in 10.0 mi NW 8.1 mph 16.1 mph N/A   Scattered Clouds
2:48 PM 73.4 °F 51.8 °F 47% 29.98 in 10.0 mi NW 8.1 mph - N/A   Scattered Clouds
3:09 PM 71.6 °F 51.8 °F 50% 29.99 in 10.0 mi WNW 6.9 mph - N/A   Scattered Clouds
3:28 PM 73.4 °F 51.8 °F 47% 29.99 in 10.0 mi NW 10.4 mph - N/A   Scattered Clouds
3:48 PM 71.6 °F 51.8 °F 50% 29.99 in 10.0 mi NNW 8.1 mph - N/A   Scattered Clouds
4:09 PM 71.6 °F 51.8 °F 50% 29.99 in 10.0 mi NW 8.1 mph - N/A   Scattered Clouds
4:28 PM 69.8 °F 48.2 °F 46% 29.99 in 10.0 mi NW 6.9 mph - N/A   Scattered Clouds
4:48 PM 71.6 °F 51.8 °F 50% 29.99 in 10.0 mi NW 8.1 mph - N/A   Mostly Cloudy
5:09 PM 71.6 °F 51.8 °F 50% 29.99 in 10.0 mi NNW 8.1 mph - N/A   Scattered Clouds
5:28 PM 71.6 °F 51.8 °F 50% 29.99 in 10.0 mi North 10.4 mph - N/A   Scattered Clouds
5:48 PM 71.6 °F 51.8 °F 50% 30.00 in 10.0 mi NNW 6.9 mph - N/A   Scattered Clouds
6:09 PM 71.6 °F 50.0 °F 46% 30.00 in 10.0 mi North 6.9 mph - N/A   Clear
6:28 PM 69.8 °F 51.8 °F 53% 30.00 in 10.0 mi North 5.8 mph - N/A   Clear
6:48 PM 69.8 °F 50.0 °F 49% 30.01 in 10.0 mi North 9.2 mph 16.1 mph N/A   Clear
7:08 PM 66.2 °F 50.0 °F 56% 30.01 in 10.0 mi North 8.1 mph - N/A   Clear
7:28 PM 66.2 °F 50.0 °F 56% 30.02 in 10.0 mi North 6.9 mph - N/A   Clear
7:49 PM 66.2 °F 51.8 °F 60% 30.02 in 10.0 mi North 3.5 mph - N/A   Clear
8:08 PM 64.4 °F 50.0 °F 59% 30.03 in 10.0 mi North 4.6 mph - N/A   Clear
8:28 PM 62.6 °F 50.0 °F 63% 30.03 in 10.0 mi Calm Calm - N/A   Clear
8:49 PM 60.8 °F 50.0 °F 68% 30.04 in 10.0 mi Calm Calm - N/A   Clear
9:08 PM 60.8 °F 50.0 °F 68% 30.04 in 10.0 mi Calm Calm - N/A   Clear
9:28 PM 55.4 °F 48.2 °F 77% 30.06 in 10.0 mi Calm Calm - N/A   Clear
9:49 PM 53.6 °F 50.0 °F 88% 30.06 in 0.8 mi Calm Calm - N/A   Mist
10:08 PM 51.8 °F 50.0 °F 94% 30.06 in 10.0 mi Calm Calm - N/A   Clear
10:28 PM 51.8 °F 48.2 °F 88% 30.06 in 10.0 mi Calm Calm - N/A   Clear
10:49 PM 50.0 °F 46.4 °F 87% 30.07 in 10.0 mi Calm Calm - N/A   Clear
11:08 PM 50.0 °F 48.2 °F 94% 30.07 in 10.0 mi Calm Calm - N/A   Clear
11:28 PM 48.2 °F 46.4 °F 93% 30.08 in 10.0 mi Calm Calm - N/A   Clear
11:48 PM 48.2 °F 46.4 °F 93% 30.08 in 10.0 mi Calm Calm - N/A   Clear